When you browse on this site, cookies collect data to enhance your experience and personalize the content and advertising you see.
Visit our Privacy Policy to learn more. By continuing to use the site, you agree to this use of cookies and data.
  • In United Kingdom
  • List of Countries
  • For 7 days
  • Water Temperature
  • Weather Map
  • Weather Widgets
  • user-avatar
    Login

    Hourly Weather Kasama

    Today, 13 November, Wednesday

    Time Temperature Precipitation Wind Pressure Humidity
    00:00 +26°C° 0 mm 0 mps 719 mmHg 35%
    01:00 +25°C° 0 mm 0 mps 719 mmHg 37%
    02:00 +24°C° 0 mm 0 mps 719 mmHg 38%
    03:00 +24°C° 0 mm 0 mps 719 mmHg 40%
    04:00 +24°C° 0 mm 0 mps 719 mmHg 42%
    05:00 +23°C° 0 mm 0 mps 719 mmHg 44%
    06:00 +25°C° 0 mm 0 mps 720 mmHg 40%
    07:00 +27°C° 0 mm 0 mps 720 mmHg 37%
    08:00 +31°C° 0 mm 1 mps 721 mmHg 33%
    09:00 +33°C° 0 mm 1 mps 721 mmHg 29%
    10:00 +36°C° 0 mm 1 mps 721 mmHg 24%
    11:00 +40°C° 0 mm 1 mps 721 mmHg 19%
    12:00 +40°C° 0 mm 1 mps 720 mmHg 19%
    13:00 +41°C° 0 mm 1 mps 719 mmHg 18%
    14:00 +41°C° 0 mm 1 mps 718 mmHg 18%
    15:00 +40°C° 0 mm 1 mps 718 mmHg 20%
    16:00 +37°C° 0 mm 1 mps 718 mmHg 23%
    17:00 +36°C° 0 mm 1 mps 718 mmHg 25%
    18:00 +34°C° 0 mm 1 mps 718 mmHg 27%
    19:00 +33°C° 0 mm 1 mps 719 mmHg 28%
    20:00 +31°C° 0 mm 1 mps 719 mmHg 30%
    21:00 +31°C° 0 mm 1 mps 719 mmHg 32%
    22:00 +30°C° 0 mm 1 mps 719 mmHg 34%
    23:00 +27°C° 0 mm 0 mps 719 mmHg 36%

    Tomorrow, 14 November, Thursday

    Time Temperature Precipitation Wind Pressure Humidity
    00:00 +26°C° 0 mm 0 mps 719 mmHg 39%
    01:00 +26°C° 0 mm 0 mps 719 mmHg 43%
    02:00 +25°C° 0 mm 0 mps 719 mmHg 46%
    03:00 +25°C° 0 mm 0 mps 719 mmHg 49%
    04:00 +24°C° 0 mm 0 mps 719 mmHg 52%
    05:00 +24°C° 0 mm 0 mps 719 mmHg 54%
    06:00 +26°C° 0 mm 0 mps 720 mmHg 49%
    07:00 +30°C° 0 mm 1 mps 721 mmHg 43%
    08:00 +31°C° 0 mm 1 mps 721 mmHg 38%
    09:00 +34°C° 0 mm 1 mps 721 mmHg 30%
    10:00 +37°C° 0 mm 2 mps 721 mmHg 23%
    11:00 +39°C° 0 mm 3 mps 721 mmHg 16%
    12:00 +39°C° 0 mm 3 mps 720 mmHg 15%
    13:00 +40°C° 0 mm 3 mps 719 mmHg 15%
    14:00 +40°C° 0 mm 3 mps 718 mmHg 14%
    15:00 +39°C° 0 mm 2 mps 718 mmHg 16%
    16:00 +38°C° 0 mm 2 mps 718 mmHg 19%
    17:00 +35°C° 0 mm 1 mps 718 mmHg 21%
    18:00 +34°C° 0 mm 1 mps 718 mmHg 22%
    19:00 +33°C° 0 mm 1 mps 719 mmHg 24%
    20:00 +31°C° 0 mm 1 mps 719 mmHg 25%
    21:00 +31°C° 0 mm 1 mps 719 mmHg 26%
    22:00 +30°C° 0 mm 1 mps 719 mmHg 26%
    23:00 +28°C° 0 mm 0 mps 719 mmHg 27%

    Day after tomorrow, 15 November, Friday

    Time Temperature Precipitation Wind Pressure Humidity
    00:00 +29°C° 0 mm 1 mps 719 mmHg 29%
    01:00 +28°C° 0 mm 1 mps 718 mmHg 31%
    02:00 +27°C° 0 mm 1 mps 718 mmHg 33%
    03:00 +25°C° 0 mm 0 mps 718 mmHg 34%
    04:00 +25°C° 0 mm 0 mps 719 mmHg 36%
    05:00 +24°C° 0 mm 0 mps 719 mmHg 37%
    06:00 +26°C° 0 mm 0 mps 720 mmHg 34%
    07:00 +30°C° 0 mm 1 mps 720 mmHg 31%
    08:00 +32°C° 0 mm 1 mps 721 mmHg 28%
    09:00 +34°C° 0 mm 1 mps 721 mmHg 24%
    10:00 +38°C° 0 mm 2 mps 721 mmHg 19%
    11:00 +40°C° 0 mm 2 mps 720 mmHg 15%
    12:00 +40°C° 0 mm 2 mps 719 mmHg 14%
    13:00 +41°C° 0 mm 2 mps 719 mmHg 14%
    14:00 +41°C° 0 mm 2 mps 718 mmHg 13%
    15:00 +40°C° 0 mm 2 mps 718 mmHg 15%
    16:00 +38°C° 0 mm 2 mps 717 mmHg 17%
    17:00 +36°C° 0 mm 1 mps 717 mmHg 19%
    18:00 +34°C° 0 mm 1 mps 718 mmHg 20%
    19:00 +33°C° 0 mm 1 mps 718 mmHg 21%
    20:00 +31°C° 0 mm 2 mps 718 mmHg 22%
    21:00 +31°C° 0 mm 1 mps 718 mmHg 23%
    22:00 +30°C° 0 mm 1 mps 718 mmHg 24%
    23:00 +29°C° 0 mm 1 mps 718 mmHg 25%

    16 November, Saturday

    Time Temperature Precipitation Wind Pressure Humidity
    00:00 +28°C° 0 mm 1 mps 718 mmHg 26%
    01:00 +28°C° 0 mm 1 mps 718 mmHg 28%
    02:00 +27°C° 0 mm 1 mps 717 mmHg 29%
    03:00 +27°C° 0 mm 1 mps 718 mmHg 30%
    04:00 +24°C° 0 mm 0 mps 718 mmHg 30%
    05:00 +24°C° 0 mm 0 mps 718 mmHg 31%
    06:00 +26°C° 0 mm 0 mps 719 mmHg 30%
    07:00 +28°C° 0 mm 0 mps 719 mmHg 28%
    08:00 +30°C° 0 mm 0 mps 720 mmHg 26%
    09:00 +34°C° 0 mm 1 mps 720 mmHg 23%
    10:00 +37°C° 0 mm 1 mps 719 mmHg 20%
    11:00 +40°C° 0 mm 1 mps 719 mmHg 17%
    12:00 +41°C° 0 mm 1 mps 719 mmHg 15%
    13:00 +41°C° 0 mm 1 mps 718 mmHg 14%
    14:00 +42°C° 0 mm 2 mps 717 mmHg 12%
    15:00 +40°C° 0 mm 1 mps 717 mmHg 14%
    16:00 +39°C° 0 mm 1 mps 717 mmHg 16%
    17:00 +36°C° 0 mm 1 mps 716 mmHg 17%
    18:00 +35°C° 0 mm 1 mps 717 mmHg 18%
    19:00 +33°C° 0 mm 1 mps 717 mmHg 19%
    20:00 +31°C° 0 mm 1 mps 717 mmHg 20%
    21:00 +31°C° 0 mm 1 mps 717 mmHg 22%
    22:00 +30°C° 0 mm 1 mps 717 mmHg 23%
    23:00 +29°C° 0 mm 1 mps 717 mmHg 24%

    17 November, Sunday

    Time Temperature Precipitation Wind Pressure Humidity
    00:00 +29°C° 0 mm 1 mps 717 mmHg 25%
    01:00 +28°C° 0 mm 1 mps 717 mmHg 27%
    02:00 +26°C° 0 mm 0 mps 717 mmHg 28%
    03:00 +25°C° 0 mm 0 mps 717 mmHg 29%
    04:00 +25°C° 0 mm 0 mps 717 mmHg 31%
    05:00 +26°C° 0 mm 1 mps 718 mmHg 32%
    06:00 +28°C° 0 mm 1 mps 718 mmHg 30%
    07:00 +30°C° 0 mm 2 mps 719 mmHg 29%
    08:00 +33°C° 0 mm 3 mps 720 mmHg 27%
    09:00 +35°C° 0 mm 3 mps 720 mmHg 25%
    10:00 +37°C° 0 mm 4 mps 720 mmHg 22%
    11:00 +40°C° 0 mm 4 mps 720 mmHg 19%
    12:00 +40°C° 0 mm 3 mps 719 mmHg 18%
    13:00 +42°C° 0 mm 3 mps 718 mmHg 17%
    14:00 +41°C° 0 mm 2 mps 718 mmHg 17%
    15:00 +40°C° 0 mm 2 mps 718 mmHg 19%
    16:00 +39°C° 0 mm 2 mps 718 mmHg 21%
    17:00 +36°C° 0 mm 1 mps 718 mmHg 23%
    18:00 +35°C° 0 mm 1 mps 718 mmHg 24%
    19:00 +33°C° 0 mm 1 mps 718 mmHg 26%
    20:00 +32°C° 0 mm 1 mps 718 mmHg 28%
    21:00 +31°C° 0 mm 1 mps 718 mmHg 31%
    22:00 +30°C° 0 mm 1 mps 718 mmHg 33%
    23:00 +27°C° 0 mm 0 mps 718 mmHg 36%

    18 November, Monday

    Time Temperature Precipitation Wind Pressure Humidity
    00:00 +27°C° 0 mm 0 mps 718 mmHg 36%
    01:00 +26°C° 0 mm 0 mps 718 mmHg 36%
    02:00 +26°C° 0 mm 0 mps 718 mmHg 36%
    03:00 +28°C° 0 mm 1 mps 718 mmHg 36%
    04:00 +27°C° 0 mm 1 mps 719 mmHg 36%
    05:00 +27°C° 0 mm 1 mps 719 mmHg 36%
    06:00 +29°C° 0 mm 2 mps 720 mmHg 32%
    07:00 +30°C° 0 mm 3 mps 720 mmHg 28%
    08:00 +32°C° 0 mm 4 mps 721 mmHg 23%
    09:00 +35°C° 0 mm 4 mps 721 mmHg 21%
    10:00 +37°C° 0 mm 4 mps 721 mmHg 19%
    11:00 +40°C° 0 mm 5 mps 721 mmHg 16%
    12:00 +40°C° 0 mm 4 mps 720 mmHg 16%
    13:00 +41°C° 0 mm 4 mps 719 mmHg 16%
    14:00 +41°C° 0 mm 4 mps 719 mmHg 16%
    15:00 +39°C° 0 mm 3 mps 718 mmHg 18%
    16:00 +38°C° 0 mm 2 mps 718 mmHg 20%
    17:00 +37°C° 0 mm 2 mps 718 mmHg 22%
    18:00 +35°C° 0 mm 2 mps 718 mmHg 23%
    19:00 +32°C° 0 mm 2 mps 719 mmHg 25%
    20:00 +31°C° 0 mm 2 mps 719 mmHg 26%
    21:00 +30°C° 0 mm 2 mps 719 mmHg 26%
    22:00 +29°C° 0 mm 2 mps 719 mmHg 26%
    23:00 +29°C° 0 mm 2 mps 719 mmHg 26%
    Show more